Date,Houle significative (H1/3 en m),Houle (Hmax en m),Période (TH1/3 en s),Vitesse de vent (Vvmoy en m),Vitesse de vent (Vvmax en m),Direction du vent (Dvmoy en °),Pression atmosphérique (hPa),Température de l'eau (°C),Température de l'air (°C)
"2024-05-22 13:10:00",0.2,0.4,4.2,11,17.6,258,1018,17.3,17.3
"2024-05-22 13:00:00",0.2,0.4,4.2,12.5,18.7,250,1018,17.3,17.1
"2024-05-22 12:50:00",0.2,0.4,4.3,10.6,17.3,260,1018,17.2,17.3
"2024-05-22 12:40:00",0.2,0.4,4.3,10.7,17.1,256,1018,17.2,17.2
"2024-05-22 12:30:00",0.3,0.4,4,10.7,16.8,257,1019,17.2,17.3
"2024-05-22 12:20:00",0.3,0.5,3.7,9.2,17.6,261,1019,17,17.5
"2024-05-22 12:10:00",0.3,0.7,3.5,9.9,17.9,254,1019,17,17.4
"2024-05-22 12:00:00",0.3,0.7,3.3,9,14.3,261,1018,17,17.4
"2024-05-22 11:50:00",0.4,0.7,3.2,11.1,18.2,258,1018,17.1,17.2
"2024-05-22 11:40:00",0.4,0.6,3.3,8.6,13.7,272,1019,17.1,17.5
"2024-05-22 11:30:00",0.4,0.6,3.4,8.9,15.3,261,1018,17.1,17.4
"2024-05-22 11:20:00",0.4,0.6,3.5,10,17.2,259,1018,17,17.2
"2024-05-22 11:10:00",0.4,0.7,3.6,9,16.6,255,1018,17,17.2
"2024-05-22 11:00:00",0.4,0.7,3.7,7,13.9,256,1019,17,17.5
"2024-05-22 10:50:00",0.4,0.7,3.7,8,14.4,272,1019,16.9,17.4
"2024-05-22 10:40:00",0.4,0.6,3.7,9.2,15.6,256,1018,16.9,17.2
"2024-05-22 10:30:00",0.4,0.6,3.6,10,15.5,254,1018,16.9,17.2
"2024-05-22 10:20:00",0.3,0.6,3.6,9.4,15.5,254,1018,16.7,17.4
"2024-05-22 10:10:00",0.3,0.6,3.5,9,17.7,265,1018,16.7,17.3
"2024-05-22 10:00:00",0.3,0.5,3.5,8,15.6,264,1018,16.7,17.5
"2024-05-22 09:50:00",0.2,0.4,3.3,7.2,12.4,265,1018,16.6,17.5
"2024-05-22 09:40:00",0.2,0.4,3.5,6.7,12.4,267,1018,16.6,17.3
"2024-05-22 09:30:00",0.2,0.4,3.6,6.6,12.5,262,1018,16.6,17.3
"2024-05-22 09:20:00",0.2,0.3,3.8,7,15.5,278,1018,16.6,17.1
"2024-05-22 09:10:00",0.2,0.3,4,7.4,14.4,270,1018,16.6,16.9
"2024-05-22 09:00:00",0.2,0.3,4.1,6.5,12,255,1018,16.6,16.6
"2024-05-22 08:50:00",0.2,0.3,4.4,7.4,9.8,226,1018,16.6,16.4
"2024-05-22 08:40:00",0.2,0.3,4.4,5.4,8.7,230,1018,16.6,16.7
"2024-05-22 08:30:00",0.2,0.5,4.5,4,7.7,245,1018,16.6,16.4
"2024-05-22 08:20:00",0.2,0.5,4.4,3.4,5.3,264,1018,16.6,16.1
"2024-05-22 08:10:00",0.2,0.5,4.5,5.4,8.9,285,1017,16.6,15.9
"2024-05-22 08:00:00",0.3,0.5,4.5,6.8,10.7,281,1017,16.6,16
"2024-05-22 07:50:00",0.3,0.5,4.5,7.1,10.7,252,1018,16.5,16.1
"2024-05-22 07:40:00",0.3,0.6,4.7,8.6,13.2,236,1018,16.5,16.2
"2024-05-22 07:30:00",0.3,0.6,4.9,7.9,11.9,242,1018,16.5,16.6
"2024-05-22 07:20:00",0.4,0.6,5.1,5.3,10.2,265,1018,16.4,16.9
"2024-05-22 07:10:00",0.4,0.6,5,4.3,9.1,257,1018,16.4,17
"2024-05-22 07:00:00",0.3,0.6,4.9,5.8,9.2,273,1017,16.4,16.7
"2024-05-22 06:50:00",0.4,0.6,4.8,5.8,10.7,278,1017,"Pas de données disponibles",16.6
"2024-05-22 06:40:00",0.4,0.7,4.9,5.7,11.3,284,1017,"Pas de données disponibles",16.5
"2024-05-22 06:30:00",0.4,0.7,5.2,6.3,10.3,280,1017,"Pas de données disponibles",16.4
"2024-05-22 06:20:00",0.4,0.7,5.4,5.8,9.4,279,1018,"Pas de données disponibles",16.4
"2024-05-22 06:10:00",0.4,0.6,5.4,7,10.6,281,1018,"Pas de données disponibles",16.4
"2024-05-22 03:30:00",0.4,0.7,4,9.8,14.5,282,1016,16.4,16.4
"2024-05-22 03:20:00",0.4,0.7,4,10.3,15.1,281,1016,16.5,16.4
"2024-05-22 03:10:00",0.4,0.8,4.1,9.4,14.7,281,1016,16.5,16.4
"2024-05-22 03:00:00",0.4,0.8,4.2,10.6,16.2,283,1017,16.5,16.4
"2024-05-22 02:50:00",0.4,0.8,4.3,10.1,16.5,282,1017,16.5,16.5
"2024-05-22 02:40:00",0.4,0.6,4.3,8.6,16.2,280,1017,16.5,16.5
"2024-05-22 02:30:00",0.4,0.6,4.3,9.4,16,282,1017,16.5,16.5
"2024-05-22 02:20:00",0.4,0.6,4.3,8.5,18.5,280,1017,16.5,16.5
"2024-05-22 02:10:00",0.4,0.6,4.5,8.6,14.6,274,1017,16.5,16.6
"2024-05-22 02:00:00",0.3,0.6,4.7,9.3,16.1,277,1016,16.5,16.6
"2024-05-22 01:50:00",0.3,0.5,4.7,10.4,16.6,280,1017,16.5,16.6
"2024-05-22 01:40:00",0.3,0.6,4.7,9.5,18.1,277,1017,16.5,16.6
"2024-05-22 01:30:00",0.3,0.6,4.7,10.4,16.7,280,1017,16.5,16.7
"2024-05-22 01:20:00",0.3,0.6,4.7,11.2,17.9,282,1017,16.6,16.7
"2024-05-22 01:10:00",0.3,0.6,4.5,11.5,17,280,1017,16.6,16.7
"2024-05-22 01:00:00",0.3,0.6,4.5,10.6,17.3,280,1017,16.6,16.7
"2024-05-22 00:50:00",0.4,0.6,4.4,11.9,17,282,1017,16.5,16.7
"2024-05-22 00:40:00",0.4,0.6,4.4,11.5,17.2,280,1017,16.5,16.7
"2024-05-22 00:30:00",0.4,0.7,4.2,9.8,17.7,280,1017,16.5,16.8
"2024-05-22 00:20:00",0.4,0.7,4.2,10.2,19.2,277,1017,16.6,16.8
"2024-05-22 00:10:00",0.5,0.8,3.9,9.6,17.5,271,1017,16.6,16.8
"2024-05-22 00:00:00",0.5,0.8,3.7,10.1,16.9,277,1017,16.6,16.9
"2024-05-21 23:50:00",0.5,0.8,3.6,10.2,17.3,279,1017,16.6,16.9
"2024-05-21 23:40:00",0.6,1.1,3.5,10.9,18.7,278,1017,16.6,16.8
"2024-05-21 23:30:00",0.6,1.1,3.5,10,18.6,276,1017,16.6,16.9
"2024-05-21 23:20:00",0.7,1.1,3.5,11.9,22.1,279,1017,16.6,16.9
"2024-05-21 23:10:00",0.7,1.1,3.6,11.9,19,281,1017,16.6,16.9
"2024-05-21 23:00:00",0.7,1.3,3.7,10.1,19.8,275,1017,16.6,16.9
"2024-05-21 22:50:00",0.7,1.3,3.7,10,17.7,273,1017,16.6,16.9
"2024-05-21 22:40:00",0.8,1.3,3.8,9.4,18,265,1017,16.6,16.9
"2024-05-21 22:30:00",0.8,1.2,3.8,11.4,19.5,263,1017,16.6,16.9
"2024-05-21 22:20:00",0.8,1.2,3.9,12.8,22.6,263,1016,16.6,16.8
"2024-05-21 22:10:00",0.7,1.5,4,9.8,18.3,268,1017,16.6,16.9
"2024-05-21 22:00:00",0.7,1.5,4,9.6,17.5,269,1016,16.6,16.9
"2024-05-21 21:50:00",0.7,1.5,4,10.6,19.5,268,1016,16.6,16.9
"2024-05-21 21:40:00",0.7,1.3,4.1,10.2,19.5,264,1016,16.6,16.9
"2024-05-21 21:30:00",0.7,1.2,4.1,12,20.6,262,1016,16.6,16.9
"2024-05-21 21:20:00",0.6,1.1,4.1,9.9,19.2,265,1016,16.6,16.9
"2024-05-21 21:10:00",0.6,1.1,4.2,11.1,21.2,264,1016,16.6,16.8
"2024-05-21 21:00:00",0.5,1,4.1,11,21.7,260,1016,16.6,16.9
"2024-05-21 20:50:00",0.5,0.9,4.1,9.6,19.2,268,1016,16.5,16.9
"2024-05-21 20:40:00",0.5,0.9,4.1,10.3,20.4,266,1016,16.5,16.9
"2024-05-21 20:30:00",0.6,1,4.3,11.1,19.3,263,1016,16.5,16.9
"2024-05-21 20:20:00",0.6,1.1,4.5,11.1,19.9,263,1016,16.6,16.9
"2024-05-21 20:10:00",0.6,1.2,4.7,9.7,19.3,268,1016,16.6,16.9
"2024-05-21 20:00:00",0.6,1.2,4.7,11.2,20.2,264,1015,16.6,16.9
"2024-05-21 19:50:00",0.6,1.2,4.6,9.7,16.1,260,1015,16.5,16.9
"2024-05-21 19:40:00",0.6,1.2,4.7,9.6,16.1,272,1015,16.5,17
"2024-05-21 19:30:00",0.7,1.3,4.8,10.1,18,270,1015,16.5,17
"2024-05-21 19:20:00",0.8,1.4,5,11.6,19.3,276,1015,16.6,17
"2024-05-21 19:10:00",0.9,1.6,5.2,8.8,18.6,268,1015,16.6,17.1
"2024-05-21 19:00:00",0.9,1.6,5.3,11.1,21,275,1015,16.6,17.1
"2024-05-21 18:50:00",0.9,1.6,5.3,9.8,19.2,271,1015,16.6,17.1
"2024-05-21 18:40:00",0.7,1.6,5.2,10.2,19.5,271,1015,16.6,17.1
"2024-05-21 18:30:00",0.7,1.4,5.1,10.9,19.4,271,1016,16.6,17.2
"2024-05-21 18:20:00",0.7,1.4,5.2,10,22.3,271,1015,16.7,17.2
"2024-05-21 18:10:00",0.8,1.4,5.2,9.8,20.1,271,1015,16.7,17.3
"2024-05-21 18:00:00",0.8,1.2,5.3,11.2,19.9,261,1015,16.7,17.2
"2024-05-21 17:50:00",0.7,1.2,5.2,9.4,17.2,268,1015,16.9,17.3
"2024-05-21 17:40:00",0.7,1.1,5,10,20.1,275,1015,16.9,17.3
"2024-05-21 17:30:00",0.6,1.1,4.7,10.4,20,270,1015,16.9,17.3
"2024-05-21 17:20:00",0.6,0.9,4.5,10.9,20.9,261,1015,17.2,17.3
"2024-05-21 17:10:00",0.6,1,4.4,9.5,17.6,266,1015,17.2,17.4
"2024-05-21 17:00:00",0.6,1,4.2,9.3,17.2,273,1015,17.2,17.5
"2024-05-21 16:50:00",0.6,1,4.2,10.8,18.4,263,1015,17,17.4
"2024-05-21 16:40:00",0.6,1,4.2,12.1,21.9,263,1015,17,17.4
"2024-05-21 16:30:00",0.6,1,4.2,13.1,22.5,261,1015,17,17.3
"2024-05-21 16:20:00",0.6,1,4.2,12.7,22.7,261,1015,17.1,17.3
"2024-05-21 16:10:00",0.6,1.1,4,12.6,21,261,1015,17.1,17.3
"2024-05-21 16:00:00",0.6,1.1,4.1,10.4,19.3,265,1015,17.1,17.5
"2024-05-21 15:50:00",0.6,1.1,3.9,11.3,19.9,260,1014,17.1,17.6
"2024-05-21 15:40:00",0.6,1.2,4.1,12.4,21.6,262,1014,17.1,17.4
"2024-05-21 15:30:00",0.6,1.2,4.2,11.2,21.5,275,1014,17.1,17.8
"2024-05-21 15:20:00",0.6,1.2,4.3,11.7,21.3,275,1014,16.9,17.7
"2024-05-21 15:10:00",0.6,0.9,4.1,10,19.5,269,1014,16.9,17.9
"2024-05-21 15:00:00",0.5,0.9,4.1,9.8,19.7,273,1014,16.9,18.1
"2024-05-21 14:50:00",0.5,0.9,4.1,9.8,19.2,270,1014,16.9,17.9
"2024-05-21 14:40:00",0.5,1,4.2,10.2,18.6,270,1014,16.9,17.9
"2024-05-21 14:30:00",0.5,1,4.2,10.3,20.6,266,1014,16.9,17.9
"2024-05-21 14:20:00",0.5,1,4.4,11.3,18.3,271,1014,16.8,17.9
"2024-05-21 14:10:00",0.5,0.8,4.6,11.4,19.2,266,1014,16.8,17.8
"2024-05-21 14:00:00",0.4,0.7,4.7,14.5,23.4,261,1014,16.8,17.6
"2024-05-21 13:50:00",0.4,0.7,4.8,14.3,24.1,260,1014,16.8,17.6
"2024-05-21 13:40:00",0.4,0.6,4.9,13.4,23.5,260,1014,16.8,17.9
"2024-05-21 13:30:00",0.3,0.6,4.7,13.1,22.3,261,1014,16.8,17.9
"2024-05-21 13:20:00",0.3,0.6,4.6,13.8,24,258,1014,16.7,17.7
"2024-05-21 13:10:00",0.4,0.6,4.6,14.2,23.9,259,1014,16.7,17.7
"2024-05-21 13:00:00",0.4,0.6,4.6,12.1,21.5,264,1014,16.7,17.8
"2024-05-21 12:50:00",0.4,0.6,4.6,11,19.2,268,1014,16.7,17.8
"2024-05-21 12:40:00",0.4,0.7,4.4,10.9,19.9,264,1014,16.7,17.7
"2024-05-21 12:30:00",0.4,0.7,4.3,11.5,23.1,267,1014,16.7,17.5
"2024-05-21 12:20:00",0.5,0.7,4.1,14.5,23.2,261,1014,16.6,17.3
"2024-05-21 12:10:00",0.5,1.1,4,13.9,25,262,1014,16.6,17.4
"2024-05-21 12:00:00",0.5,1.1,3.9,13.1,21.4,260,1014,16.6,17.6
"2024-05-21 11:50:00",0.6,1.1,3.9,12,20.6,262,1014,16.7,17.5
"2024-05-21 11:40:00",0.6,0.9,3.8,13.3,23.7,263,1014,16.7,17.2
"2024-05-21 11:30:00",0.6,1.1,3.7,13.1,23,260,1014,16.7,17.2
"2024-05-21 11:20:00",0.7,1.1,3.6,12,26.3,265,1014,16.6,17.2
"2024-05-21 11:10:00",0.7,1.1,3.4,9.6,19.3,267,1014,16.6,17.3
"2024-05-21 11:00:00",0.7,1.2,3.5,10.4,21.1,268,1013,16.6,17.3
"2024-05-21 10:50:00",0.8,1.5,3.5,13.8,23.7,263,1013,16.6,17.2
"2024-05-21 10:40:00",0.8,1.5,3.6,13.9,23.3,264,1013,16.6,17.1
"2024-05-21 10:30:00",0.8,1.5,3.7,15.4,25.8,262,1013,16.6,17
"2024-05-21 10:20:00",0.8,1.3,3.7,13.6,23.7,261,1013,16.6,17.1
"2024-05-21 10:10:00",0.8,1.2,3.8,11.2,21.2,264,1013,16.6,17.5
"2024-05-21 10:00:00",0.8,1.2,3.8,10.6,19.6,278,1013,16.6,17.7
"2024-05-21 09:50:00",0.8,1.2,3.9,12,22.2,281,1013,16.6,17.7
"2024-05-21 09:40:00",0.7,1.2,4,12.5,19.5,284,1012,16.6,17.5
"2024-05-21 09:30:00",0.7,1.2,4.1,9.1,18.3,278,1012,16.6,17.5
"2024-05-21 09:20:00",0.7,1.2,4.2,9.1,18.2,274,1012,16.6,17.2
"2024-05-21 09:10:00",0.7,1.3,4.3,10.8,19.5,281,1012,16.6,17.4
"2024-05-21 09:00:00",0.7,1.3,4.4,10.1,16.1,278,1012,16.6,17.5
"2024-05-21 08:50:00",0.6,1.3,4.4,11.3,22,281,1012,16.6,17.5
"2024-05-21 08:40:00",0.6,1.1,4.4,11.6,18.9,282,1012,16.6,17.4
"2024-05-21 08:30:00",0.6,1,4.4,9,17,273,1012,16.6,17.4
"2024-05-17 20:10:00",0.4,0.6,4.6,2.6,5,318,1013,17.1,15.7
"2024-05-17 20:00:00",0.4,0.6,4.7,2.6,4.7,313,1013,17.1,15.8
"2024-05-17 19:50:00",0.4,0.6,4.8,2.3,5.4,304,1013,17.2,16
"2024-05-17 19:40:00",0.3,0.6,4.8,3.7,5.7,293,1013,17.2,16
"2024-05-17 19:30:00",0.3,0.6,4.9,3.4,5.9,287,1013,17.2,16.2
"2024-05-17 19:20:00",0.3,0.6,4.7,3.9,7.5,282,1013,17.1,16.2
"2024-05-17 19:10:00",0.3,0.5,4.7,4.7,7.4,285,1013,17.1,16.3
"2024-05-17 19:00:00",0.3,0.5,4.7,5.3,9.6,285,1013,17.1,16.3
"2024-05-17 18:50:00",0.3,0.5,4.9,6,8.7,282,1012,17.1,16.3
"2024-05-17 18:40:00",0.3,0.5,5,6.2,10,282,1012,17.1,16.4
"2024-05-17 18:30:00",0.3,0.5,4.9,6.5,10.2,284,1012,17.1,16.4
"2024-05-17 18:20:00",0.3,0.4,5,7.6,10.6,281,1012,17.3,16.3
"2024-05-17 18:10:00",0.2,0.4,4.9,5.7,9.9,280,1012,17.3,16.5
"2024-05-17 18:00:00",0.2,0.4,5.2,7,10.8,281,1012,17.3,16.5
"2024-05-17 17:50:00",0.2,0.4,5.1,7.3,11.2,271,1012,17.3,16.5
"2024-05-17 17:40:00",0.2,0.4,5.1,7.6,11.7,281,1012,17.3,16.4
"2024-05-17 17:30:00",0.2,0.4,5.1,6.5,11.7,278,1012,17.3,16.5
"2024-05-17 17:20:00",0.2,0.5,5.1,7.7,12.2,282,1012,17,16.3
"2024-05-17 17:10:00",0.2,0.5,5,7.6,12.2,276,1012,17,16.4
"2024-05-17 17:00:00",0.2,0.5,5,7.2,12.3,276,1012,17,16.5
"2024-05-17 16:50:00",0.2,0.3,5.3,6.5,12,271,1012,17,16.6
"2024-05-17 16:40:00",0.2,0.3,5.3,7.3,12.1,252,1012,17,16.5
"2024-05-17 16:30:00",0.2,0.3,5.5,7.8,11.8,254,1012,17,16.4
"2024-05-17 16:20:00",0.2,0.3,5.7,8,11.3,253,1012,16.8,16.3
"2024-05-17 16:10:00",0.2,0.3,5.6,6.7,10,262,1012,16.8,16.5
"2024-05-17 16:00:00",0.2,0.4,5.2,7.2,11.3,266,1012,16.8,16.4
"2024-05-17 15:50:00",0.2,0.4,4.9,7.3,11.5,251,1012,17.1,16.4
"2024-05-17 15:40:00",0.3,0.6,5,7.8,12.7,270,1012,17.1,16.3
"2024-05-17 15:30:00",0.3,0.6,4.9,8,12.1,256,1012,17.1,16.3
"2024-05-17 15:20:00",0.3,0.6,5,8.2,12.2,271,1012,17,16.2
"2024-05-17 15:10:00",0.3,0.5,4.9,7.9,12.5,268,1012,17,16.2
"2024-05-17 15:00:00",0.2,0.4,4.9,8.3,12.9,279,1012,17,16.1
"2024-05-17 14:50:00",0.2,0.4,4.8,7.5,12.2,273,1012,17.5,16.3
"2024-05-17 14:40:00",0.3,0.4,4.8,6.4,11,270,1012,17.5,16.4
"2024-05-17 14:30:00",0.3,0.4,4.8,8.3,13.2,279,1012,17.5,16.2
"2024-05-17 14:20:00",0.3,0.5,5,8,13.8,277,1012,17.3,16.1
"2024-05-17 14:10:00",0.3,0.5,4.9,6.7,12.1,265,1012,17.3,16.2
"2024-05-17 14:00:00",0.3,0.5,5,6.9,11.2,269,1012,17.3,16.1
"2024-05-17 13:50:00",0.3,0.5,4.9,6.9,11.4,261,1012,16.7,16
"2024-05-17 13:40:00",0.3,0.6,5,6.3,9.7,269,1012,16.7,15.9
"2024-05-17 13:30:00",0.4,0.6,5.3,5.9,9.2,279,1012,16.7,15.7
"2024-05-17 13:20:00",0.4,0.6,5.3,6.1,9.2,257,1012,17,15.8
"2024-05-17 13:10:00",0.4,0.6,5.2,5.2,8.3,250,1012,17,15.8
"2024-05-17 13:00:00",0.4,0.6,5,4.8,7.5,233,1012,17,15.7
"2024-05-17 12:50:00",0.4,0.7,4.9,3.7,6,232,1012,16.6,15.8
"2024-05-17 12:40:00",0.4,0.7,5.1,2.3,4.7,218,1012,16.6,15.7
"2024-05-17 12:30:00",0.4,0.7,5.3,3.4,5.4,174,1012,16.6,15.2
"2024-05-17 12:20:00",0.4,0.6,5.4,3.2,4.6,170,1012,16.3,15.2
"2024-05-17 12:10:00",0.4,0.7,5.3,4.1,6.3,185,1012,16.3,14.9
"2024-05-17 12:00:00",0.4,0.7,5.2,4.2,6.5,192,1012,16.3,14.9
"2024-05-17 11:50:00",0.4,0.8,5.2,4,5.8,202,1012,16.2,14.7
"2024-05-17 11:40:00",0.4,0.8,5.2,5.2,8,187,1012,16.2,14.6
"2024-05-17 11:30:00",0.4,0.8,5.1,6.1,9.9,169,1012,16.2,14.4
"2024-05-17 11:20:00",0.4,0.7,5.1,8.2,10.7,163,1012,16,14.5
"2024-05-17 11:10:00",0.4,0.7,5.2,7.7,10.7,149,1012,16,14.8
"2024-05-17 11:00:00",0.4,0.7,5.2,7.6,11.3,142,1012,16,15
"2024-05-17 10:50:00",0.4,0.7,5.1,6.7,9.1,140,1012,16,15.1
"2024-05-17 10:40:00",0.4,0.7,5,6.9,10.5,147,1012,16,15.2
"2024-05-17 10:30:00",0.4,0.8,5,6.6,11.3,160,1012,16,15.1
"2024-05-17 10:20:00",0.4,0.8,5,5.1,7.3,148,1012,16,14.9
"2024-05-17 10:10:00",0.4,0.8,4.9,5.4,7.7,117,1012,16,14.9
"2024-05-17 10:00:00",0.4,0.7,5,5.5,7.2,107,1012,16,15
"2024-05-17 09:50:00",0.4,0.6,4.9,5.3,7.4,106,1012,16.2,15
"2024-05-17 09:40:00",0.5,0.7,4.9,4.9,8.6,112,1012,16.2,15
"2024-05-17 09:30:00",0.5,0.8,4.9,4.3,7.6,141,1012,16.2,15.1
"2024-05-17 09:20:00",0.5,0.8,4.9,3.6,5.3,130,1011,16.3,15
"2024-05-17 09:10:00",0.5,0.8,4.8,3.8,6.4,116,1011,16.3,15.1
"2024-05-17 09:00:00",0.5,0.8,4.7,3,4.6,128,1011,16.3,15
"2024-05-17 08:50:00",0.5,0.8,4.9,2.2,3.7,151,1011,16.3,15
"2024-05-17 08:40:00",0.4,0.8,4.9,1.1,3.1,144,1011,16.3,14.9
"2024-05-17 08:30:00",0.4,0.7,5.1,1.5,2.6,139,1011,16.3,14.8
"2024-05-17 08:20:00",0.4,0.7,5,1.1,2.5,113,1011,16.2,14.7
"2024-05-17 08:10:00",0.4,0.7,5,0.7,2,28,1011,16.2,14.6
"2024-05-17 08:00:00",0.4,0.9,5,1.5,3.4,86,1011,16.2,14.7
"2024-05-17 07:50:00",0.4,0.9,5,0.8,3.5,115,1011,16.2,14.7
"2024-05-17 07:40:00",0.4,0.9,5.1,0.6,1.7,97,1011,16.2,14.6
"2024-05-17 07:30:00",0.4,0.7,5.1,0.6,1.4,217,1011,16.2,14.7
"2024-05-17 07:20:00",0.4,0.7,5.2,0.6,1.8,292,1011,16.2,14.7
"2024-05-17 07:10:00",0.4,0.7,5.3,1.2,2.8,62,1011,16.2,14.5
"2024-05-17 07:00:00",0.4,0.7,5.4,1.5,3.2,56,1011,16.2,14.5
"2024-05-17 06:50:00",0.4,0.7,5.4,0.7,1.8,99,1011,16.1,14.7
"2024-05-17 06:40:00",0.4,0.7,5.4,1.9,3.7,100,1011,16.1,14.7
"2024-05-17 06:30:00",0.4,0.7,5.6,3.5,5.4,105,1010,16.1,14.6
"2024-05-17 06:20:00",0.3,0.7,5.9,3.1,6.6,89,1011,16.1,14.6
"2024-05-17 06:10:00",0.3,0.7,6,1.3,2.8,55,1011,16.1,14.5
"2024-05-17 06:00:00",0.3,0.5,5.8,0.8,2.1,356,1011,16.1,14.4
"2024-05-17 05:50:00",0.3,0.5,5.7,1.5,2.9,20,1010,16,14.3
"2024-05-17 05:40:00",0.3,0.5,5.7,1.4,2.7,54,1010,16,14.3
"2024-05-17 05:30:00",0.3,0.5,5.8,2.3,4.2,69,1010,16,14.4
"2024-05-17 05:20:00",0.3,0.5,5.8,3.2,4.7,92,1010,16,14.9
"2024-05-17 05:10:00",0.3,0.5,5.9,3.8,5.6,142,1010,16,15.1
"2024-05-17 05:00:00",0.3,0.5,5.9,4.3,5.6,165,1010,16,15.1
"2024-05-17 04:50:00",0.3,0.5,5.7,4.6,6.7,180,1010,16,15.1
"2024-05-17 04:40:00",0.3,0.5,5.6,5.8,7.9,181,1010,16,15.1
"2024-05-17 04:30:00",0.3,0.6,5.5,7.1,11.1,190,1010,16,15
"2024-05-17 04:20:00",0.3,0.6,5.6,10.8,13.6,182,1010,15.9,14.6
"2024-05-17 04:10:00",0.3,0.6,5.7,9.6,12.2,180,1010,15.9,14.5
"2024-05-17 04:00:00",0.3,0.5,5.7,8.8,11.4,180,1010,15.9,14.5
"2024-05-17 03:50:00",0.3,0.6,5.7,9.8,12.1,179,1010,16,14.4
"2024-05-17 03:40:00",0.3,0.6,5.6,8.7,11.3,180,1010,16,14.6
"2024-05-17 03:30:00",0.3,0.6,5.8,8.3,10.8,186,1010,16,14.7
"2024-05-17 03:20:00",0.4,0.6,5.8,8.7,11.5,187,1010,16,14.7
"2024-05-17 03:10:00",0.4,0.6,5.6,9.6,11.8,179,1010,16,14.7
"2024-05-17 03:00:00",0.4,0.6,5.3,9.4,12.1,179,1010,16,14.7
"2024-05-17 02:50:00",0.4,0.6,5,9,11.9,181,1010,16,14.7
"2024-05-17 02:40:00",0.3,0.5,4.9,9.3,11.8,181,1010,16,14.7
"2024-05-17 02:30:00",0.4,0.6,4.9,9.8,12.8,182,1010,16,14.8
"2024-05-17 02:20:00",0.4,0.6,5,10.2,12.5,180,1010,16.1,14.8
"2024-05-17 02:10:00",0.4,0.7,5,9.9,13,178,1010,16.1,14.8
"2024-05-17 02:00:00",0.4,0.9,5,10.8,13.7,177,1010,16.1,14.7
"2024-05-17 01:50:00",0.5,0.9,4.5,10.6,14.2,173,1010,16,14.8
"2024-05-17 01:40:00",0.5,0.9,4.4,9.1,11.9,174,1010,16,14.8
"2024-05-17 01:30:00",0.5,0.9,4.2,10.6,14.4,185,1010,16,14.8
"2024-05-17 01:20:00",0.5,0.9,4.2,11.5,14.7,181,1010,16.1,15.2
"2024-05-17 01:10:00",0.5,0.9,4.3,12.7,16,181,1010,16.1,15.2
"2024-05-17 01:00:00",0.6,0.9,4.4,12.8,15.6,179,1010,16.1,15.2
"2024-05-17 00:50:00",0.6,1.1,4.6,12.3,15.9,180,1010,16.2,15.4
"2024-05-17 00:40:00",0.6,1.1,4.7,12.7,15.8,181,1010,16.2,15.5
"2024-05-17 00:30:00",0.6,1,4.9,12.6,15.7,180,1010,16.2,15.5
"2024-05-17 00:20:00",0.6,1.1,5,12,15.6,178,1010,16.2,15.5
"2024-05-17 00:10:00",0.6,1.1,5.2,12.5,15.3,178,1010,16.2,15.4
"2024-05-17 00:00:00",0.6,1.1,5,12.6,16.1,179,1010,16.2,15.4
"2024-05-16 23:50:00",0.6,0.9,4.9,11.8,14.9,181,1010,16.2,15.4
"2024-05-16 23:40:00",0.6,1,4.7,11,13.7,183,1010,16.2,15.5
"2024-05-16 23:30:00",0.6,1,4.8,11.6,14.3,182,1010,16.2,15.5
"2024-05-16 23:20:00",0.7,1,5.1,11.8,14.5,181,1010,16.3,15.5
"2024-05-16 23:10:00",0.7,1,5.3,11.7,15.1,182,1010,16.3,15.5
"2024-05-16 23:00:00",0.6,1,5.3,11.5,14.2,181,1010,16.3,15.5
"2024-05-16 22:50:00",0.6,1,5.2,11.5,13.7,181,1010,16.3,15.5
"2024-05-16 22:40:00",0.6,0.9,5.1,11.4,13.9,179,1010,16.3,15.6
"2024-05-16 22:30:00",0.6,0.9,5.1,11,14,183,1010,16.3,15.6
"2024-05-16 22:20:00",0.6,1.2,5.1,10.8,13.3,184,1010,16.3,15.6
"2024-05-16 22:10:00",0.6,1.2,5.1,10.5,13.6,186,1010,16.3,15.6
"2024-05-16 22:00:00",0.6,1.2,5.1,10.4,13.7,185,1010,16.3,15.6
"2024-05-16 21:50:00",0.6,1.1,5.1,10.5,13.9,188,1010,16.4,15.6
"2024-05-16 21:40:00",0.6,1.1,5,10.5,14.3,190,1010,16.4,15.7
"2024-05-16 21:30:00",0.6,1.1,5,9.3,13.8,194,1010,16.4,15.7
"2024-05-16 21:20:00",0.6,1,4.9,10.7,14.7,190,1010,16.4,15.8
"2024-05-16 21:10:00",0.6,1.1,4.9,11.5,14.5,186,1010,16.4,15.8
"2024-05-16 21:00:00",0.6,1.1,5.1,10.4,14.4,187,1010,16.4,15.9
"2024-05-16 20:50:00",0.6,1.1,5,9.7,12.6,184,1010,16.5,15.8
"2024-05-16 20:40:00",0.6,1.1,5,9.3,13.2,189,1010,16.5,15.9
"2024-05-16 20:30:00",0.7,1.1,4.9,8.7,14.4,204,1010,16.5,15.9
"2024-05-16 20:20:00",0.7,1.1,4.8,9.3,16.2,205,1010,16.5,15.8
"2024-05-16 20:10:00",0.7,1.1,4.8,10.8,16.6,203,1010,16.5,15.9
"2024-05-16 20:00:00",0.7,1,4.5,10.6,16.8,196,1010,16.5,15.9
"2024-05-16 19:50:00",0.7,1,4.4,9.9,15.1,199,1010,16.5,16
"2024-05-16 19:40:00",0.7,1,4.3,9.8,14.6,204,1010,16.5,15.9
"2024-05-16 19:30:00",0.7,1.1,4.4,10.6,16.4,202,1009,16.5,16
"2024-05-16 19:20:00",0.7,1.1,4.5,11.4,18.3,209,1009,16.5,16
"2024-05-16 19:10:00",0.7,1.1,4.4,14.4,19.7,226,1009,16.5,15.8
"2024-05-16 19:00:00",0.7,1.1,4.3,13.5,18.6,224,1009,16.5,16
"2024-05-16 18:50:00",0.7,1.2,4.2,14.5,20,219,1009,16.6,15.9
"2024-05-16 18:40:00",0.7,1.3,4.2,15.7,21.9,223,1009,16.6,16
"2024-05-16 18:30:00",0.7,1.3,4.1,15.5,20.1,222,1009,16.6,15.9
"2024-05-16 18:20:00",0.7,1.3,4,15.2,24.4,221,1009,16.6,16
"2024-05-16 18:10:00",0.7,1.2,4.1,14.5,19,225,1009,16.6,15.9
"2024-05-16 18:00:00",0.7,1.2,4.1,17.6,23.6,225,1009,16.6,15.9
"2024-05-16 17:50:00",0.7,1,4,11.5,18.5,214,1009,16.6,16.1
"2024-05-16 17:40:00",0.6,1,4,12.5,19.2,211,1009,16.6,16
"2024-05-16 17:30:00",0.6,1,3.8,15.2,22.9,219,1009,16.6,16
"2024-05-16 17:20:00",0.6,1,3.8,15.1,22.5,218,1009,16.5,15.9
"2024-05-16 17:10:00",0.6,1,3.8,16.2,23.1,219,1009,16.5,16.1
"2024-05-16 17:00:00",0.5,1,3.8,15.9,22,223,1009,16.5,16.1
"2024-05-16 16:50:00",0.5,0.9,4.1,14.5,20.2,219,1009,16.6,16.1
"2024-05-16 16:40:00",0.6,1,4.3,15.9,22.1,219,1009,16.6,16.1
"2024-05-16 16:30:00",0.6,1,4.6,16.5,22.2,222,1009,16.6,16
"2024-05-16 16:20:00",0.6,1,4.7,15.7,23.1,220,1009,16.5,15.9
"2024-05-16 16:10:00",0.5,1.1,4.9,16.4,23.1,222,1009,16.5,15.9
"2024-05-16 16:00:00",0.5,1.1,5,15.8,22.1,220,1009,16.5,16
"2024-05-16 15:50:00",0.5,1.1,4.9,16.8,24.5,221,1009,16.4,15.9
"2024-05-16 15:40:00",0.6,1,4.9,17.6,23.5,221,1008,16.4,15.9
"2024-05-16 15:30:00",0.6,1.1,5,17.2,22.8,223,1009,16.4,15.9
"2024-05-16 15:20:00",0.6,1.1,4.9,15.4,21.8,222,1009,16.5,15.9
"2024-05-16 15:10:00",0.6,1.1,4.7,14.6,20.2,227,1009,16.5,15.5
"2024-05-16 15:00:00",0.6,1.2,4.5,15,23.5,228,1009,16.5,15.2
"2024-05-16 14:50:00",0.6,1.2,4.3,16.2,25.3,233,1009,16.5,15.5
"2024-05-16 14:40:00",0.6,1.2,4.1,17.1,24.1,229,1009,16.5,15.8
"2024-05-16 14:30:00",0.5,0.9,3.9,18.1,25.8,228,1008,16.5,15.6
"2024-05-16 14:20:00",0.6,1.1,4,18.2,24.8,228,1009,16.4,15.6
"2024-05-16 14:10:00",0.6,1.1,4,16.9,22.6,229,1009,16.4,15.6
"2024-05-16 14:00:00",0.6,1.1,4.1,17.6,24.5,227,1009,16.4,15.7
"2024-05-16 13:50:00",0.5,1,4.1,17.3,24.2,230,1009,16.4,15.7
"2024-05-16 13:40:00",0.5,1,4.1,17.3,23.9,228,1009,16.4,15.7
"2024-05-16 13:30:00",0.5,0.9,4,17.6,23.1,229,1009,16.4,15.7
"2024-05-16 13:20:00",0.5,0.9,4.2,16.5,23.7,227,1009,16.3,15.6
"2024-05-16 13:10:00",0.6,0.9,4.2,14.9,23.1,225,1009,16.3,15.4
"2024-05-16 13:00:00",0.6,1,4.3,10.3,14.3,220,1009,16.3,15.4
"2024-05-16 12:50:00",0.6,1.2,4.1,11.4,17,222,1009,16.3,15.1
"2024-05-16 12:40:00",0.7,1.2,4.1,11.3,16,223,1009,16.3,15
"2024-05-16 12:30:00",0.7,1.2,4.1,12.7,19.1,219,1009,16.3,14.9
"2024-05-16 12:20:00",0.7,1.2,4.1,16,22,223,1009,16.2,15
"2024-05-16 12:10:00",0.7,1.2,4.2,18.3,27.4,228,1009,16.2,15
"2024-05-16 12:00:00",0.7,1.2,4.4,16.4,24,231,1009,16.2,15.4
"2024-05-16 11:50:00",0.8,1.2,4.4,16.4,21.2,225,1009,16.1,15.3
"2024-05-16 11:40:00",0.8,1.2,4.5,16.9,23.6,228,1009,16.1,15.4
"2024-05-16 11:30:00",0.7,1.2,4.5,14.3,19.9,226,1009,16.1,15.5
"2024-05-16 11:20:00",0.7,1.2,4.5,12.3,18.6,219,1009,16,15.6
"2024-05-16 11:10:00",0.7,1.2,4.6,9.6,15.8,189,1009,16,15.5
"2024-05-16 11:00:00",0.7,1.2,4.5,10.3,13.9,186,1009,16,15.3
"2024-05-16 10:50:00",0.8,1.2,4.5,10.1,14.7,191,1008,16,15.1
"2024-05-16 10:40:00",0.7,1.2,4.4,11,16.7,195,1008,16,15.1
"2024-05-16 10:30:00",0.7,1.1,4.3,10.6,17.4,195,1008,16,15
"2024-05-16 10:20:00",0.6,0.9,4.5,14.5,19.7,190,1008,16,14.8
"2024-05-16 10:10:00",0.6,1,4.5,15.7,22.5,190,1008,16,14.9
"2024-05-16 10:00:00",0.6,1.3,4.7,12.5,20.2,203,1008,16,15.2
"2024-05-16 09:50:00",0.6,1.3,4.8,12,16.9,192,1008,16,15.1
"2024-05-16 09:40:00",0.7,1.3,4.8,11.3,15.2,189,1008,16,15
"2024-05-16 09:30:00",0.6,1.3,4.8,11.3,16.5,187,1008,16,14.9
"2024-05-16 09:20:00",0.6,1.1,4.7,11.5,16.9,180,1008,16,14.5
"2024-05-16 09:10:00",0.6,1.1,4.9,12.1,17.1,182,1008,16,14.5
"2024-05-16 09:00:00",0.6,1,4.8,8.5,14.8,152,1008,16,14.3
"2024-05-16 08:50:00",0.6,1,4.8,9,11.3,159,1008,16,14.3
"2024-05-16 08:40:00",0.6,1,4.9,9.4,12,165,1008,16,14.3
"2024-05-16 08:30:00",0.6,1,4.9,7.8,10.3,179,1008,16,14.4
"2024-05-16 08:20:00",0.6,1.1,4.9,9.1,13.3,181,1008,16.1,14.4
"2024-05-16 08:10:00",0.6,1.1,4.8,11.5,15.4,177,1008,16.1,14.4
"2024-05-16 08:00:00",0.7,1.1,4.7,11.2,15.6,176,1008,16.1,14.4
"2024-05-16 07:50:00",0.7,1.1,4.7,10.7,13.4,167,1008,16.1,14.4
"2024-05-16 07:40:00",0.6,1,4.6,12.6,16.9,170,1008,16.1,14.4
"2024-05-16 07:30:00",0.6,1,4.5,13.6,17.1,172,1008,16.1,14.3
"2024-05-16 07:20:00",0.6,1,4.6,12.3,16.5,179,1008,16.2,14.4
"2024-05-16 07:10:00",0.6,1,4.7,11.4,17,189,1008,16.2,14.6
"2024-05-16 07:00:00",0.6,1,4.6,12.1,18.1,217,1008,16.2,14.6
"2024-05-16 06:50:00",0.7,1,4.5,12.6,19.4,228,1008,16.1,14.4
"2024-05-16 06:40:00",0.6,1.1,4.5,12.3,21.2,239,1008,16.1,14.3
"2024-05-16 06:30:00",0.6,1.1,4.7,11.8,18.9,228,1008,16.1,14.1
"2024-05-16 06:20:00",0.6,1.1,4.5,11.7,18.5,225,1008,16.1,14.5
"2024-05-16 06:10:00",0.6,1.2,4.5,11.3,25,225,1008,16.1,14.8
"2024-05-16 06:00:00",0.6,1.2,4.4,11.1,15.9,226,1008,16.1,14.8